This is the latest recevied weather packets stored in our database for station/object N7ZAP. If no packets are shown the sender has not sent any weather packets the latest 10 day(s).
| Time | Temp. | Humidity | Pressure | Rain* | Wind** | Luminosity | Snow |
|---|---|---|---|---|---|---|---|
| 1788536138 | 22.22° C | 66% | 1022.5 hPa | 0 mm | - | - | - |
| 1788535835 | 22.22° C | 67% | 1022.5 hPa | 0 mm | - | - | - |
| 1788535530 | 21.67° C | 69% | 1022.4 hPa | 0 mm | - | - | - |
| 1788535226 | 21.11° C | 70% | 1022.5 hPa | 0 mm | - | - | - |
| 1788534921 | 21.11° C | 71% | 1022.3 hPa | 0 mm | - | - | - |
| 1788534621 | 21.11° C | 70% | 1022.1 hPa | 0 mm | - | - | - |
| 1788534320 | 21.11° C | 70% | 1022.5 hPa | 0 mm | - | - | - |
| 1788534015 | 20.56° C | 70% | 1022.1 hPa | 0 mm | - | - | - |
| 1788533710 | 20.56° C | 73% | 1022.3 hPa | 0 mm | - | - | - |
| 1788533405 | 20.56° C | 72% | 1022 hPa | 0 mm | - | - | - |
| 1788533101 | 20.56° C | 73% | 1022.3 hPa | 0 mm | - | - | - |
| 1788532796 | 20.56° C | 74% | 1021.8 hPa | 0 mm | - | - | - |
| 1788532492 | 20.56° C | 76% | 1022 hPa | 0 mm | - | - | - |
| 1788532189 | 20.56° C | 74% | 1021.6 hPa | 0 mm | - | - | - |
| 1788531885 | 20.56° C | 74% | 1021.7 hPa | 0 mm | - | - | - |
| 1788531584 | 20.56° C | 73% | 1021.7 hPa | 0 mm | - | - | - |
| 1788531279 | 20.56° C | 72% | 1021.4 hPa | 0 mm | - | - | - |
| 1788530976 | 20.56° C | 70% | 1021.3 hPa | 0 mm | - | - | - |
| 1788530675 | 20.56° C | 69% | 1021.4 hPa | 0 mm | - | - | - |
| 1788530375 | 20.56° C | 69% | 1021.3 hPa | 0 mm | - | - | - |
| 1788530074 | 21.11° C | 68% | 1021.1 hPa | 0 mm | - | - | - |
| 1788529771 | 21.11° C | 66% | 1021.1 hPa | 0 mm | - | - | - |
| 1788529471 | 21.11° C | 62% | 1021.1 hPa | 0 mm | - | - | - |
| 1788529166 | 21.11° C | 62% | 1021 hPa | 0 mm | - | - | - |
| 1788528860 | 21.11° C | 60% | 1021 hPa | 0 mm | - | - | - |
* Rain latest hour (hover to see other rain measurements)
** Current wind speed in m/s (hover to see current wind gust speed)